Regional Weather Roundup
Issued by NWS State College, PA

Home | Current Version | Previous Version | Graphics & Text | Print | Product List | Glossary On
Versions: 1 2 3 4 5 6 7 8 9 10 11 12 13 14 15 16 17 18 19 20 21 22 23 24 25 26 27 28 29 30 31 32 33 34 35 36 37 38 39 40 41 42 43 44 45 46 47 48 49 50
229
ASUS41 KCTP 272310
RWRCTP

REGIONAL WEATHER ROUNDUP
NATIONAL WEATHER SERVICE STATE COLLEGE PA
600 PM EST MON FEB 27 2017

Note: "fair" indicates few or no clouds below 12,000 feet with no
significant weather and/or obstructions to visibility.

* = STATION THAT DOES NOT REPORT PRECIPITATION /E.G. RAIN...SNOW...ETC/
    THUNDER OR FOG.

PAZ002>004-007>009-013>016-020>023-029>032-280000-
WESTERN PENNSYLVANIA

CITY           SKY/WX    TMP DP  RH WIND       PRES   REMARKS
ERIE           CLOUDY    42  23  46 CALM      30.26S
MEADVILLE      CLOUDY    43  27  53 S5        30.24S
FRANKLIN*      CLOUDY    41  27  56 S9        30.26S
NEW CASTLE     CLOUDY    42  36  79 VRB7      30.26F
BEAVER COUNTY  CLOUDY    41  36  81 S7        30.25F
BUTLER*        CLOUDY    41  34  75 S7        30.27F
PITTSBURGH INT LGT RAIN  41  38  89 SE5       30.26F
PITTSBURGH     CLOUDY    41  36  82 S8        30.27F
INDIANA*       CLOUDY    41  39  93 SE3       30.32S
LATROBE        CLOUDY    41  41 100 CALM      30.31R
WASHINGTON CO* CLOUDY    41  37  87 CALM      30.30R
$$

PAZ004>006-010>012-017>019-024>028-033>037-041-042-045-046-049>053-280000-
CENTRAL PENNSYLVANIA

CITY           SKY/WX    TMP DP  RH WIND       PRES   REMARKS
BRADFORD       CLOUDY    41  23  48 S5        30.25S
DUBOIS         CLOUDY    41  32  70 S6        30.25F
CLEARFIELD       N/A    N/A N/A N/A MISG      30.30S
JOHNSTOWN      CLOUDY    39  37  92 SW6       30.28R
ALTOONA        CLOUDY    42  38  85 CALM      30.31R
STATE COLLEGE  DRIZZLE   43  36  75 S7        30.32S
WILLIAMSPORT   CLOUDY    48  26  42 S12       30.33S
SELINSGROVE    CLOUDY    45  34  65 S7        30.36S
FT INDIANTOWN  CLOUDY    47  33  59 CALM      30.37R
CAPITAL CITY   CLOUDY    49  31  49 CALM      30.37R
HARRISBURG     CLOUDY    48  33  56 CALM      30.36S
YORK           CLOUDY    50  25  37 S5        30.36S
$$

PAZ038>040-043-044-047-048-054-055-060>062-067>071-280000-
EASTERN PENNSYLVANIA

CITY           SKY/WX    TMP DP  RH WIND       PRES   REMARKS
SCRANTON       CLOUDY    47  27  45 SW9       30.34R
MOUNT POCONO   CLOUDY    40  27  59 SW9       30.32R
ALLENTOWN      CLOUDY    48  32  53 SW9       30.39R
QUAKERTOWN*    CLOUDY    46  34  61 NW3       30.40S
READING        CLOUDY    46  38  73 S3        30.37F
LANCASTER      CLOUDY    46  40  79 E5        30.37S
COATESVILLE    PTCLDY    48  28  46 VRB3      30.39S
POTTSTOWN      CLOUDY    46  33  60 CALM      30.40F
BLUE BELL      CLOUDY    46  32  57 CALM      30.39S
DOYLESTOWN     CLOUDY    48  32  53 W6        30.39R
WILLOW GROVE   NOT AVBL
NORTH PHILA    CLOUDY    52  30  43 W10       30.42R
PHILADELPHIA   CLOUDY    52  25  35 SW10      30.42R
$$




USA.gov is the U.S. government's official web portal to all federal, state and local government web resources and services.